sat.trackr.live / text

‹ back to catalog

STARLINK-33624

NORAD 63071 · 2025-035V

PAYLOAD ACTIVE UNKNOWN

§ Identity

Operator
Country
US
Launch date
2025-02-21
Launch site
AFETR
Launch vehicle
Mass (kg)
RCS (m²)

Purposes: comms

External: N2YO · Heavens-Above · Gunter

§ Orbital elements

Epoch: 2026-05-25T04:02:18.328416Z

Period
94.27 min
Inclination
43.0015°
Eccentricity
0.0001408
Mean motion
15.27606112 rev/d
Perigee alt
482.0 km
Apogee alt
483.9 km
Semi-major
6,861.1 km
B*
7.8152e-4
RAAN
71.9164°
Arg perigee
264.6642°
Mean anomaly
95.4049°
Rev number
7,135

§ Raw data

STARLINK-336241 63071U 25035V   26145.16826769  .00021323  00000+0  78152-3 0  99912 63071  43.0015  71.9164 0001408 264.6642  95.4049 15.27606112 71351

JSON: /api/v1/satellites/63071 · /tle

For live sub-satellite position, see the globe view (requires WebGL).

§ Visibility from observer

Set your observer location to see the next 7 days of passes ≥ 10°. The values pass through the URL so the page stays shareable.

No JS? Fill the form by hand. The geolocation button needs JavaScript.